Location: Newark
(32.9533°N, 113.4900°W)
Time: 14:51:55
(UTC+00:00)

Hubble Space Telescope - Visible Passes

Search period start: 20 October 2019 00:00
Search period end: 30 October 2019 00:00
Orbit: 536 x 540 km, 28.5° (Epoch: 19 October)

Date Brightness Start Highest point End Pass type
(mag) Time Alt. Az. Time Alt. Az. Time Alt. Az.
25 Oct 3.4 13:22:11 10° SSW 13:24:30 15° SSE 13:26:49 10° ESE visible
26 Oct 3.2 13:11:01 10° SSW 13:13:50 18° SSE 13:16:39 10° ESE visible
27 Oct 2.9 13:00:01 10° SSW 13:03:10 21° SSE 13:06:20 10° ESE visible
28 Oct 2.6 12:49:07 10° SW 12:52:31 25° SSE 12:55:56 10° ESE visible
29 Oct 2.3 12:38:50 13° SW 12:41:53 29° SSE 12:45:28 10° ESE visible
